Regional Weather Roundup
Issued by NWS Green Bay, WI

Home | Current Version | Previous Version | Text Only | Print | Product List | Glossary On
Versions: 1 2 3 4 5 6 7 8 9 10 11 12 13 14 15 16 17 18 19 20 21 22 23 24 25 26 27 28 29 30 31 32 33 34 35 36 37 38 39 40 41 42 43 44 45 46 47 48 49 50
000
ASUS43 KGRB 111700
RWRGRB

NORTH-CENTRAL AND NORTHEAST WISCONSIN REGIONAL WEATHER ROUNDUP
NATIONAL WEATHER SERVICE GREEN BAY WI
1100 AM CST THU FEB 11 2016

WIZ005-009-010>012-018-019-111800-
NORTH CENTRAL WISCONSIN

CITY           SKY/WX    TMP DP  RH WIND       PRES   REMARKS
IRONWOOD       PTSUNNY    7   1  78 W8        30.19S WCI  -6
MANITOWISH WTR NOT AVBL
ARBOR VITAE    NOT AVBL
EAGLE RIVER    NOT AVBL
LAND O LAKES   NOT AVBL
RHINELANDER    SUNNY      9  -2  61 W8        30.18S WCI  -3
PHILLIPS       NOT AVBL
ANTIGO         NOT AVBL
TOMAHAWK       NOT AVBL
MERRILL        NOT AVBL
$$

WIZ013-073-111800-
NORTHEAST WISCONSIN

CITY           SKY/WX    TMP DP  RH WIND       PRES   REMARKS
IRON MOUNTAIN  SUNNY     12  -1  56 NW14      30.17S WCI  -3
MARINETTE      SUNNY     12   0  57 SW7       30.24S WCI   2
$$

WIZ017-030-035>037-045-111800-
CENTRAL WISCONSIN

CITY           SKY/WX    TMP DP  RH WIND       PRES   REMARKS
MEDFORD        NOT AVBL
WAUSAU         SUNNY     10   0  63 W8        30.23F WCI  -2
MOSINEE        SUNNY      9   0  66 CALM      30.26R
MARSHFIELD     SUNNY      5  -3  69 VRB3      30.25S
WISC RAPIDS    SUNNY     10  -3  55 W10       30.30R WCI  -4
STEVENS POINT  NOT AVBL
WAUPACA        SUNNY     16   1  50 W5        30.29R WCI   9
SHAWANO        SUNNY     14   1  56 W5        30.27S WCI   6
CLINTONVILLE   NOT AVBL
WAUTOMA        NOT AVBL
$$

WIZ038-039-048-051-111800-
FOX VALLEY

CITY           SKY/WX    TMP DP  RH WIND       PRES   REMARKS
NWS GREEN BAY  SUNNY     11   0  61 W7        30.27F WCI   0
APPLETON       SUNNY     10  -2  56 VRB5      30.26R WCI   2
OSHKOSH        SUNNY      9  -1  64 W7        30.28S WCI  -2
FOND DU LAC    FLURRIES  12   0  58 W7        30.29S WCI   1
$$

WIZ022-050-052-111800-
EAST CENTRAL WISCONSIN

CITY           SKY/WX    TMP DP  RH WIND       PRES   REMARKS
EPHRAIM        FAIR      13  -1  54 NW12      30.21S WCI  -1
STURGEON BAY   SUNNY     10   0  61 NW8       30.26F WCI  -1
MANITOWOC      NOT AVBL
SHEBOYGAN      SUNNY     11  -1  58 NW7       30.28S WCI   0
$$

LMZ563-521-522-541>543-111800-
LAKESHORE

STATION/POSITION TIME  TEMP    WIND        PRES    VSBY  WAVE
                       AIR SEA DIR/SP/G                  HT/PER
                 (UTC) (F)     (DEG/KT/KT) (MB)    (MI)  (FT/S)
SHEBOYGAN LKSHOR 1600    9     320/ 10/ 12 1027.4R
KEWAUNEE LKSHORE 1600          300/ 12/ 16 1024.0R
CHAMBERS ISLAND  1600   14     300/ 11/ 16 1023.7
MENOMINEE LKSHOR 1600          320/ 11     1023.1R
$$



USA.gov is the U.S. government's official web portal to all federal, state and local government web resources and services.